[[{"header":{"parameterUnit":"m.s-1","parameterCategory":1,"la1":30.2992,"la2":30.254,"lo1":-89.0895,"lo2":-89.0443,"dy":0.0025,"dx":0.0025,"nx":19,"ny":19,"refTime":"2026-04-18T09:00:00:Z","depth":0,"parameterNumber":2,"parameterNumberName":"U-component_of_WINDS"},"data":[0,0,0,6.3873,6.3875,6.3959,6.3959,6.4094,6.4095,0,0,0,0,0,0,0,0,0,0,0,6.3866,6.3868,6.3872,6.3875,6.3959,6.3959,6.4094,6.4095,0,0,0,0,0,0,0,0,0,0,0,6.3866,6.3868,6.387,6.3875,6.3959,6.3959,6.4093,6.402,0,0,0,0,0,0,0,0,0,0,6.3933,6.3946,6.3867,6.387,6.3876,6.3959,6.3959,6.4016,6.4024,6.4069,0,6.4115,0,6.4108,6.4107,6.4107,0,0,0,6.386,6.3939,6.3945,6.387,6.3877,6.3958,6.3917,6.402,6.403,6.408,6.4116,6.4121,6.411,6.4108,6.4108,6.4417,6.4419,0,0,6.3856,6.3891,6.3939,6.3953,6.3944,6.3914,6.392,6.4026,6.4066,6.4117,6.4123,6.4112,6.4109,6.411,6.4415,6.4418,0,0,0,6.3852,6.3888,6.3891,6.3948,6.3961,6.3917,6.3923,6.4061,6.406,6.4124,6.4114,6.411,6.4112,6.4413,6.4416,6.4553,0,0,0,6.3849,6.3886,6.389,6.3912,6.396,6.4013,6.3957,6.4052,6.4063,6.4113,6.411,6.4113,6.441,6.4415,6.4544,6.461,0,0,0,6.3854,6.3887,6.3906,6.3914,6.3951,6.401,6.4014,6.4054,6.4058,6.4107,6.4114,6.4409,6.4414,6.4536,6.4597,6.4699,0,0,0,6.387,6.4026,6.3908,6.4079,6.3951,6.4097,6.4013,6.4119,6.4179,6.411,6.4411,6.4416,6.4534,6.4589,6.4691,6.4788,6.4833,0,0,6.4086,6.4054,6.4151,6.4048,6.4224,6.4081,6.4276,6.4296,6.4269,6.4369,6.4376,6.4547,6.4596,6.4698,6.5083,6.5119,0,0,0,6.4232,6.4302,6.4341,6.44,6.4422,6.4444,6.4432,6.4439,6.4523,6.4328,6.4613,6.4641,6.4699,6.4743,6.4774,6.482,6.4439,6.4439,6.4438,6.4584,6.4543,6.4701,6.467,6.4729,6.4716,6.4758,6.4766,6.4706,6.4775,6.4801,6.5041,6.5095,6.5117,6.5165,6.4854,6.4855,6.4855,6.4855,6.4893,6.4984,6.4904,6.5028,6.4983,6.5086,6.5081,6.5035,6.5123,6.5016,6.5065,6.4948,6.5158,6.5198,6.4865,6.4864,6.4862,6.4861,6.4861,6.5115,6.5151,6.5161,6.5243,6.5311,6.5275,6.5363,6.532,6.5279,6.5328,6.535,6.5348,6.5336,6.5343,6.5344,6.5345,6.5346,6.5346,6.5347,6.5339,6.5345,6.5426,6.5465,6.5497,6.5534,6.5526,6.5556,6.5578,6.5539,6.5539,6.5469,6.5189,6.5116,6.5359,6.5357,6.5356,6.5354,6.5353,6.5658,6.558,6.5704,6.5738,6.5779,6.5848,6.5795,6.586,6.5879,6.5924,6.5847,6.5649,6.561,6.5585,6.5524,6.5858,6.5858,6.5858,6.5858,6.5841,6.582,6.5937,6.5993,6.6043,6.6008,6.6147,6.6144,6.6126,6.6135,6.6082,6.6,6.5977,6.5952,6.5919,6.5861,6.6273,6.6274,6.6274,6.6033,6.6015,6.6142,6.6127,6.6157,6.6183,6.6313,6.6379,6.6343,6.629,6.614,6.6123,6.5989,6.5949,6.5885,6.5836,6.5729,0,0]},{"header":{"parameterUnit":"m.s-1","parameterCategory":1,"la1":30.2992,"la2":30.254,"lo1":-89.0895,"lo2":-89.0443,"dy":0.0025,"dx":0.0025,"nx":19,"ny":19,"refTime":"2026-04-18T09:00:00:Z","depth":0,"parameterNumber":3,"parameterNumberName":"V-component_of_WINDS"},"data":[0,0,0,2.3502,2.3511,2.3966,2.3968,2.4505,2.4509,0,0,0,0,0,0,0,0,0,0,0,2.3338,2.334,2.3501,2.3512,2.3966,2.3969,2.4504,2.4509,0,0,0,0,0,0,0,0,0,0,0,2.3337,2.334,2.3343,2.3514,2.3966,2.3969,2.4503,2.4177,0,0,0,0,0,0,0,0,0,0,2.3743,2.3562,2.3339,2.3343,2.3516,2.3965,2.3969,2.4162,2.4197,2.4278,0,2.434,0,2.4432,2.4542,2.4544,0,0,0,2.3536,2.3532,2.3681,2.3343,2.352,2.3964,2.3768,2.4182,2.4222,2.4325,2.4348,2.437,2.4441,2.4545,2.4547,2.4926,2.4926,0,0,2.3511,2.3405,2.3653,2.3705,2.3629,2.3753,2.3782,2.4207,2.4227,2.4351,2.4383,2.445,2.4548,2.4552,2.4925,2.4926,0,0,0,2.3422,2.3386,2.3526,2.3681,2.3766,2.3766,2.3799,2.4209,2.4262,2.4389,2.4456,2.4551,2.4557,2.4925,2.4926,2.4852,0,0,0,2.3409,2.3335,2.3514,2.3454,2.3757,2.3993,2.379,2.4233,2.4284,2.4454,2.4551,2.4562,2.4924,2.4925,2.4853,2.4837,0,0,0,2.3319,2.3325,2.338,2.3447,2.3638,2.3989,2.4068,2.4247,2.4324,2.4544,2.4563,2.4924,2.4925,2.4854,2.4838,2.4903,0,0,0,2.3193,2.3314,2.3377,2.3537,2.3633,2.3938,2.4066,2.43,2.448,2.4554,2.4924,2.4926,2.4854,2.4839,2.4903,2.4938,2.4942,0,0,2.3287,2.3321,2.3424,2.3494,2.3758,2.3877,2.4134,2.4402,2.4522,2.4785,2.4796,2.4853,2.4839,2.4903,2.5004,2.5007,0,0,0,2.3418,2.349,2.3583,2.3746,2.3948,2.412,2.4358,2.4457,2.4683,2.4634,2.4897,2.4892,2.4934,2.4956,2.4959,2.5001,2.4931,2.4931,2.4931,2.3402,2.3542,2.372,2.3913,2.4069,2.4309,2.4449,2.4623,2.4726,2.4784,2.4864,2.4907,2.4928,2.4931,2.4973,2.4894,2.4893,2.4893,2.4893,2.3551,2.3674,2.3798,2.4014,2.4162,2.4347,2.4581,2.4645,2.4839,2.4861,2.4906,2.4916,2.4929,2.4974,2.4889,2.489,2.489,2.4891,2.4891,2.3557,2.364,2.3752,2.3996,2.4169,2.4362,2.4539,2.467,2.4795,2.4838,2.4934,2.4936,2.4953,2.4874,2.4874,2.4874,2.4874,2.4874,2.4875,2.3518,2.3647,2.3778,2.3996,2.4114,2.4286,2.4522,2.4643,2.4811,2.4892,2.4893,2.4986,2.4904,2.4879,2.4878,2.4877,2.4877,2.4876,2.4876,2.3618,2.3614,2.3817,2.3933,2.4197,2.4357,2.4518,2.4751,2.487,2.4952,2.5035,2.4952,2.4999,2.4999,2.498,2.5005,2.5005,2.5005,2.5005,2.3622,2.3656,2.3889,2.4066,2.4255,2.4418,2.4642,2.4824,2.5014,2.5095,2.511,2.5096,2.5089,2.5141,2.5137,2.5121,2.5181,2.5182,2.5182,2.3691,2.3747,2.3912,2.4091,2.4305,2.4485,2.4699,2.4899,2.5114,2.5192,2.5162,2.5154,2.5132,2.5118,2.5198,2.519,2.5164,0,0]}]]